OMAA Airport Information

Runway Information
Runway 13L Length 13452 ft width 197 ft
Elevation 62 ft Threshold 0 ft Heading 128
Runway 31R Length 13452 ft Width 197 ft
Elevation 72 ft Threshold 0 ft Heading 308
Runway 13R Length 13452 ft width 148 ft
Elevation 82 ft Threshold 0 ft Heading 128
Runway 31L Length 13452 ft Width 148 ft
Elevation 88 ft Threshold 0 ft Heading 308
Airport Frequencies
Type APP Name RDR Frequency 124.4 MHZ
Type ATIS Name ATIS Frequency 125.1 MHZ
Type TWR Name TWR Frequency 119.2 MHZ
Airport Navaids
Type VOR-DME Name Abu Dhabi Frequency 113000 KHZ
Airport Weather Information & NOTAM
ADDS - METARS form results

(1532 UTC 21 April 2018)
 
METAR text: OMAA 211500Z 33007KT CAVOK 30/13 Q1009 NOSIG
Conditions at: OMAA (ABU DHABI INTL , AE) observed 1500 UTC 21 April 2018
Temperature: 30.0°C (86°F)
Dewpoint: 13.0°C (55°F) [RH = 35%]
Pressure (altimeter): 29.79 inches Hg (1009.0 mb)
Winds: from the NNW (330 degrees) at 8 MPH (7 knots; 3.6 m/s)
Visibility: 6 or more miles (10+ km)
Ceiling: ceiling and visibility are OK
Clouds: unknown
Weather: no significant weather observed at this time